[[{"header":{"parameterUnit":"m.s-1","parameterCategory":1,"la1":30.2991,"la2":30.254,"lo1":-89.0895,"lo2":-89.0444,"dy":0.0017,"dx":0.0017,"nx":28,"ny":28,"refTime":"2024-12-03T03:00:00:Z","depth":0,"parameterNumber":2,"parameterNumberName":"U-component_of_WINDS"},"data":[0,0,0,0,0,0,0,0,0,0,0,0,0,0,0,0,0,0,0,0,0,0,0,0,0,0,0,0,0,0,0,0,0,0,0,0,0,0,0,0,0,0,0,0,0,0,0,0,0,0,0,0,0,0,0,0,0,0,-0.7193,-0.7192,0,-0.7174,-0.7173,-0.7173,-0.7127,-0.7126,-0.7125,-0.7125,-0.7106,-0.7107,-0.7107,0,0,0,0,0,0,0,0,0,0,0,0,0,-0.7191,-0.7191,-0.7193,-0.7192,-0.7192,-0.7174,-0.7173,-0.7173,-0.7128,-0.7126,-0.7125,-0.7124,-0.7106,-0.7107,-0.7107,0,0,0,0,0,0,0,0,0,0,0,0,0,-0.7184,-0.7191,-0.7193,-0.7167,-0.7165,-0.7174,-0.7173,-0.7173,-0.7128,-0.7126,-0.7125,-0.7124,-0.7106,-0.7107,-0.7107,-0.714,0,0,-0.7109,-0.7109,0,0,0,0,0,0,0,0,-0.7184,-0.7184,-0.7171,-0.7169,-0.7166,-0.7151,-0.7166,-0.7162,-0.7128,-0.7142,-0.7124,-0.7123,-0.7123,-0.7122,-0.7121,-0.7139,-0.7138,-0.7109,-0.711,-0.711,-0.711,0,0,0,0,0,0,0,-0.7185,-0.7185,-0.7185,-0.7171,-0.7168,-0.7157,-0.7154,-0.7165,-0.7141,-0.7141,-0.7137,-0.7135,-0.7121,-0.7121,-0.7121,-0.7138,-0.7109,-0.711,-0.711,-0.711,-0.7182,-0.7183,0,0,0,0,0,0,-0.7189,-0.7185,-0.7186,-0.7185,-0.7172,-0.7158,-0.7155,-0.7158,-0.714,-0.7136,-0.7137,-0.7133,-0.7121,-0.712,-0.712,-0.7157,-0.711,-0.711,-0.7111,-0.718,-0.7182,-0.7184,0,0,0,0,0,0,-0.7189,-0.7189,-0.7186,-0.7184,-0.7183,-0.716,-0.7163,-0.7158,-0.7158,-0.7137,-0.7133,-0.7141,-0.7119,-0.7119,-0.7135,-0.7156,-0.7111,-0.7111,-0.7178,-0.7181,-0.7183,-0.7232,0,0,0,0,0,0,-0.7189,-0.719,-0.7202,-0.7185,-0.7183,-0.7202,-0.7164,-0.7159,-0.7159,-0.7154,-0.714,-0.7137,-0.7118,-0.7135,-0.7136,-0.7156,-0.7112,-0.7176,-0.7179,-0.7182,-0.7229,-0.7236,-0.7242,0,0,0,0,0,-0.7189,-0.7217,-0.7202,-0.7203,-0.7197,-0.7203,-0.7203,-0.718,-0.7161,-0.7173,-0.716,-0.7137,-0.7153,-0.7137,-0.7138,-0.7158,-0.7175,-0.7179,-0.7182,-0.7226,-0.7235,-0.7242,0,0,0,0,0,0,-0.7237,-0.7214,-0.7198,-0.7221,-0.7214,-0.7196,-0.721,-0.719,-0.719,-0.7186,-0.7159,-0.7156,-0.7176,-0.7169,-0.715,-0.7189,-0.7161,-0.7164,-0.7194,-0.7202,-0.7208,-0.721,-0.7112,0,0,0,0,0,-0.725,-0.7257,-0.7236,-0.7258,-0.7256,-0.7234,-0.7235,-0.7219,-0.7211,-0.7209,-0.7196,-0.7191,-0.7194,-0.7197,-0.72,-0.7227,-0.7224,-0.7242,-0.7249,-0.7254,-0.7258,-0.7273,-0.7281,-0.7195,-0.7195,-0.7195,0,0,-0.7278,-0.7266,-0.7272,-0.7267,-0.726,-0.7268,-0.7232,-0.7241,-0.7247,-0.721,-0.7225,-0.7216,-0.7207,-0.7229,-0.7239,-0.7224,-0.7281,-0.7259,-0.7263,-0.7264,-0.7277,-0.7285,-0.7293,-0.7197,-0.7197,-0.7196,0,0,-0.7332,-0.7323,-0.7341,-0.7334,-0.7324,-0.7309,-0.7314,-0.7298,-0.729,-0.7304,-0.7277,-0.7283,-0.729,-0.7285,-0.7284,-0.7336,-0.7315,-0.7337,-0.7373,-0.7387,-0.7394,-0.74,-0.7419,-0.7427,-0.7341,-0.7341,-0.7341,0,-0.7368,-0.7378,-0.7352,-0.7364,-0.7363,-0.7329,-0.7347,-0.7342,-0.7334,-0.7334,-0.7317,-0.7325,-0.7317,-0.7338,-0.7351,-0.735,-0.7355,-0.7339,-0.7395,-0.7401,-0.7406,-0.7424,-0.7431,-0.7344,-0.7343,-0.7343,-0.7343,0,-0.7423,-0.743,-0.7445,-0.7437,-0.7438,-0.7453,-0.743,-0.7434,-0.7417,-0.7404,-0.7419,-0.7408,-0.7407,-0.7411,-0.7394,-0.7429,-0.7421,-0.74,-0.7371,-0.7417,-0.7434,-0.7441,-0.7348,-0.7347,-0.7346,-0.7345,0,0,-0.7508,-0.7485,-0.7491,-0.7487,-0.7473,-0.7479,-0.7492,-0.7491,-0.7495,-0.749,-0.7501,-0.7507,-0.7488,-0.7486,-0.7469,-0.7481,-0.7524,-0.7459,-0.7458,-0.7472,-0.7563,-0.758,-0.7588,-0.751,-0.7511,-0.7512,-0.7564,0,-0.7559,-0.758,-0.7558,-0.7583,-0.759,-0.7558,-0.7569,-0.7562,-0.755,-0.7554,-0.7541,-0.7546,-0.752,-0.7519,-0.753,-0.7517,-0.7542,-0.7512,-0.7521,-0.7521,-0.7525,-0.7596,-0.7614,-0.7664,-0.757,-0.7571,-0.7572,0,-0.7623,-0.762,-0.7647,-0.7631,-0.7633,-0.7644,-0.7641,-0.7645,-0.7637,-0.7627,-0.7625,-0.7604,-0.7616,-0.7587,-0.7604,-0.7584,-0.7586,-0.758,-0.7581,-0.7582,-0.7551,-0.7601,-0.7679,-0.7687,-0.7582,-0.7581,-0.758,0,-0.7684,-0.7687,-0.7703,-0.7701,-0.7682,-0.7691,-0.7684,-0.7673,-0.7674,-0.7672,-0.7672,-0.7672,-0.7672,-0.7672,-0.7651,-0.7632,-0.7671,-0.764,-0.7664,-0.7665,-0.7675,-0.7675,-0.7756,-0.7675,-0.7674,-0.7674,-0.7674,0,-0.7745,-0.7763,-0.773,-0.7741,-0.7759,-0.7733,-0.7753,-0.7742,-0.7733,-0.7741,-0.7713,-0.7721,-0.7693,-0.7698,-0.7682,-0.7699,-0.7699,-0.7692,-0.7688,-0.7695,-0.7697,-0.7697,-0.7694,-0.7676,-0.7676,-0.7675,-0.7675,0,-0.7817,-0.7795,-0.7811,-0.7792,-0.7788,-0.7803,-0.7787,-0.7796,-0.7782,-0.7792,-0.7793,-0.7771,-0.7776,-0.7755,-0.7756,-0.7745,-0.7771,-0.776,-0.7774,-0.7771,-0.7797,-0.7796,-0.7883,-0.7893,-0.7804,-0.7805,-0.7805,0,-0.7858,-0.787,-0.7853,-0.7856,-0.785,-0.7855,-0.7856,-0.783,-0.7832,-0.7823,-0.7833,-0.7835,-0.7836,-0.7845,-0.7829,-0.783,-0.782,-0.7851,-0.782,-0.7828,-0.7822,-0.7822,-0.7824,-0.7858,-0.7859,-0.786,-0.786,0,-0.7933,-0.7922,-0.7923,-0.7922,-0.7923,-0.792,-0.7916,-0.792,-0.7892,-0.7896,-0.79,-0.79,-0.7901,-0.7904,-0.7902,-0.7895,-0.7874,-0.787,-0.7876,-0.7884,-0.7892,-0.7889,-0.7793,-0.7868,-0.7867,-0.7867,-0.7866,-0.7866,-0.7991,-0.8001,-0.799,-0.7993,-0.7987,-0.7983,-0.7991,-0.7977,-0.798,-0.7979,-0.7963,-0.7971,-0.7961,-0.7956,-0.7951,-0.7957,-0.7943,-0.7951,-0.7953,-0.7956,-0.7961,-0.789,-0.7956,-0.7956,-0.7956,-0.7955,-0.7955,0,-0.8066,-0.8057,-0.806,-0.8055,-0.8057,-0.8035,-0.8029,-0.8033,-0.8039,-0.8032,-0.8033,-0.8038,-0.8041,-0.8025,-0.8026,-0.8034,-0.8024,-0.8035,-0.8035,-0.8034,-0.7973,-0.7969,-0.8043,-0.8043,-0.8043,-0.8043,-0.8043,-0.8043,-0.8106,-0.8122,-0.8109,-0.8122,-0.8113,-0.8119,-0.8118,-0.8115,-0.8109,-0.8116,-0.8118,-0.8107,-0.8097,-0.8096,-0.8098,-0.8093,-0.8095,-0.811,-0.8102,-0.8046,-0.8038,-0.803,-0.8025,-0.811,-0.811,-0.8162,-0.8163,-0.8163]},{"header":{"parameterUnit":"m.s-1","parameterCategory":1,"la1":30.2991,"la2":30.254,"lo1":-89.0895,"lo2":-89.0444,"dy":0.0017,"dx":0.0017,"nx":28,"ny":28,"refTime":"2024-12-03T03:00:00:Z","depth":0,"parameterNumber":3,"parameterNumberName":"V-component_of_WINDS"},"data":[0,0,0,0,0,0,0,0,0,0,0,0,0,0,0,0,0,0,0,0,0,0,0,0,0,0,0,0,0,0,0,0,0,0,0,0,0,0,0,0,0,0,0,0,0,0,0,0,0,0,0,0,0,0,0,0,0,0,-2.7847,-2.7848,0,-2.7892,-2.7893,-2.7893,-2.7889,-2.7888,-2.7887,-2.7887,-2.7929,-2.7931,-2.7933,0,0,0,0,0,0,0,0,0,0,0,0,0,-2.7755,-2.7757,-2.7847,-2.7848,-2.7848,-2.7892,-2.7893,-2.7893,-2.7889,-2.7888,-2.7887,-2.7886,-2.7929,-2.7931,-2.7933,0,0,0,0,0,0,0,0,0,0,0,0,0,-2.7797,-2.7758,-2.7847,-2.7852,-2.7852,-2.7892,-2.7893,-2.7893,-2.7889,-2.7888,-2.7887,-2.7886,-2.7928,-2.793,-2.7933,-2.797,0,0,-2.7941,-2.7942,0,0,0,0,0,0,0,0,-2.7795,-2.78,-2.785,-2.7851,-2.7852,-2.7884,-2.7876,-2.7919,-2.7889,-2.7875,-2.7886,-2.7885,-2.7915,-2.7918,-2.7929,-2.7972,-2.7974,-2.7941,-2.7943,-2.7944,-2.7945,0,0,0,0,0,0,0,-2.7792,-2.7798,-2.7865,-2.7851,-2.7852,-2.785,-2.7855,-2.7884,-2.79,-2.7876,-2.7876,-2.7881,-2.7915,-2.7926,-2.793,-2.7975,-2.7941,-2.7944,-2.7945,-2.7946,-2.8052,-2.8053,0,0,0,0,0,0,-2.7788,-2.7796,-2.7864,-2.7866,-2.782,-2.7853,-2.7858,-2.7875,-2.79,-2.7903,-2.7882,-2.7881,-2.7922,-2.7927,-2.7931,-2.7978,-2.7944,-2.7947,-2.7948,-2.8051,-2.8052,-2.8054,0,0,0,0,0,0,-2.7786,-2.7794,-2.7862,-2.7831,-2.784,-2.7856,-2.7874,-2.7876,-2.7888,-2.7904,-2.7907,-2.7891,-2.7922,-2.7928,-2.7961,-2.7979,-2.7948,-2.795,-2.8049,-2.8051,-2.8053,-2.807,0,0,0,0,0,0,-2.7784,-2.7794,-2.7809,-2.7832,-2.7841,-2.7892,-2.7875,-2.7878,-2.7893,-2.7891,-2.7913,-2.7916,-2.7921,-2.7957,-2.7964,-2.7982,-2.7952,-2.8048,-2.805,-2.8052,-2.8068,-2.8072,-2.8076,0,0,0,0,0,-2.778,-2.7811,-2.7809,-2.7818,-2.786,-2.7893,-2.7898,-2.7905,-2.7894,-2.7909,-2.792,-2.7915,-2.7976,-2.7961,-2.7968,-2.7988,-2.8047,-2.805,-2.8052,-2.8066,-2.8071,-2.8076,0,0,0,0,0,0,-2.7788,-2.7814,-2.7813,-2.7851,-2.787,-2.7892,-2.7911,-2.791,-2.7931,-2.7929,-2.7935,-2.794,-2.7974,-2.7984,-2.7966,-2.8025,-2.801,-2.8014,-2.8018,-2.8023,-2.8027,-2.8024,-2.7955,0,0,0,0,0,-2.7794,-2.7819,-2.784,-2.7872,-2.7882,-2.7895,-2.7909,-2.7912,-2.7932,-2.7939,-2.7952,-2.797,-2.7994,-2.8009,-2.8031,-2.8069,-2.8074,-2.8086,-2.809,-2.8093,-2.8097,-2.8119,-2.8125,-2.8062,-2.8062,-2.8062,0,0,-2.7807,-2.7824,-2.7839,-2.7874,-2.7889,-2.7914,-2.7901,-2.7928,-2.7947,-2.7943,-2.7976,-2.7986,-2.8007,-2.8043,-2.806,-2.8053,-2.8115,-2.8097,-2.8099,-2.8101,-2.8123,-2.8128,-2.8134,-2.8064,-2.8064,-2.8064,0,0,-2.7844,-2.7859,-2.7888,-2.7904,-2.7927,-2.7936,-2.7943,-2.7965,-2.7973,-2.8006,-2.8004,-2.8026,-2.8065,-2.808,-2.8093,-2.8137,-2.8134,-2.8144,-2.8164,-2.8186,-2.8191,-2.8195,-2.8212,-2.8218,-2.8147,-2.8147,-2.8147,0,-2.7857,-2.7896,-2.7903,-2.7931,-2.7947,-2.7945,-2.7975,-2.7989,-2.8018,-2.8028,-2.802,-2.807,-2.8084,-2.8124,-2.8135,-2.8145,-2.8154,-2.8141,-2.819,-2.8194,-2.8198,-2.8214,-2.822,-2.8148,-2.8148,-2.8148,-2.8148,0,-2.7911,-2.7938,-2.7959,-2.7989,-2.8006,-2.8034,-2.8046,-2.8062,-2.8064,-2.8074,-2.8108,-2.8124,-2.815,-2.816,-2.8161,-2.8201,-2.8196,-2.8188,-2.8173,-2.8206,-2.8221,-2.8227,-2.815,-2.815,-2.8149,-2.8149,0,0,-2.7954,-2.7988,-2.7996,-2.801,-2.8036,-2.8057,-2.8085,-2.8112,-2.8126,-2.8146,-2.817,-2.8204,-2.8198,-2.8212,-2.8215,-2.8234,-2.8269,-2.8224,-2.8225,-2.8233,-2.8315,-2.8321,-2.8328,-2.8267,-2.8268,-2.8269,-2.8314,0,-2.7994,-2.8046,-2.8054,-2.8099,-2.8125,-2.8124,-2.8149,-2.8167,-2.8176,-2.8199,-2.8208,-2.8233,-2.8222,-2.8231,-2.825,-2.8261,-2.8286,-2.8258,-2.8289,-2.829,-2.8286,-2.8336,-2.8342,-2.8384,-2.8319,-2.832,-2.8321,0,-2.8048,-2.8072,-2.812,-2.8144,-2.8155,-2.8177,-2.8203,-2.8224,-2.8245,-2.825,-2.8267,-2.8268,-2.8297,-2.828,-2.832,-2.8301,-2.8314,-2.8322,-2.8323,-2.8327,-2.8308,-2.8342,-2.8397,-2.8404,-2.833,-2.8329,-2.8329,0,-2.8076,-2.8119,-2.8154,-2.8166,-2.8194,-2.821,-2.8223,-2.8242,-2.8258,-2.828,-2.8291,-2.8315,-2.8329,-2.8347,-2.8355,-2.8342,-2.8395,-2.8378,-2.8401,-2.8401,-2.8413,-2.8412,-2.8471,-2.8419,-2.8419,-2.8419,-2.8419,0,-2.8121,-2.8151,-2.8168,-2.8189,-2.8223,-2.8231,-2.8264,-2.8275,-2.8293,-2.8316,-2.8316,-2.8338,-2.8346,-2.8369,-2.8375,-2.8408,-2.8413,-2.8419,-2.842,-2.842,-2.8419,-2.8429,-2.8427,-2.8421,-2.842,-2.842,-2.842,0,-2.8158,-2.8171,-2.8209,-2.8233,-2.824,-2.8264,-2.8284,-2.8305,-2.8314,-2.8344,-2.8351,-2.8366,-2.8393,-2.8402,-2.8434,-2.8438,-2.8477,-2.8475,-2.8471,-2.8471,-2.8493,-2.8492,-2.8562,-2.8572,-2.8512,-2.8513,-2.8513,0,-2.8187,-2.821,-2.8237,-2.8254,-2.8267,-2.8293,-2.831,-2.8319,-2.8336,-2.8362,-2.838,-2.8407,-2.843,-2.8473,-2.8486,-2.8511,-2.851,-2.8533,-2.8514,-2.8513,-2.8512,-2.8511,-2.8514,-2.8537,-2.8538,-2.8538,-2.8539,0,-2.8236,-2.8242,-2.8267,-2.8295,-2.8315,-2.8337,-2.8358,-2.8371,-2.8382,-2.8402,-2.843,-2.8448,-2.8482,-2.8509,-2.8535,-2.8546,-2.8545,-2.8545,-2.8551,-2.8552,-2.8549,-2.8552,-2.8482,-2.8543,-2.8543,-2.8542,-2.8542,-2.8542,-2.8271,-2.8292,-2.8316,-2.8344,-2.8361,-2.838,-2.8402,-2.8415,-2.8439,-2.8468,-2.8471,-2.8503,-2.8523,-2.8557,-2.857,-2.8594,-2.8588,-2.8597,-2.86,-2.8602,-2.8605,-2.8544,-2.8599,-2.8598,-2.8598,-2.8598,-2.8598,0,-2.8322,-2.8337,-2.8363,-2.8393,-2.8415,-2.8413,-2.8436,-2.8455,-2.8482,-2.8502,-2.8525,-2.8558,-2.8585,-2.86,-2.8626,-2.8643,-2.8643,-2.8649,-2.8649,-2.8652,-2.8608,-2.8601,-2.8649,-2.8649,-2.8649,-2.8649,-2.8649,-2.8649,-2.8351,-2.8388,-2.8396,-2.8441,-2.8455,-2.8487,-2.85,-2.8519,-2.8535,-2.8572,-2.8595,-2.8605,-2.8623,-2.8651,-2.8676,-2.8679,-2.8689,-2.8697,-2.87,-2.866,-2.8655,-2.865,-2.8642,-2.8699,-2.8699,-2.8742,-2.8742,-2.8743]}]]